Regional Weather Roundup
Issued by NWS

Home | Current Version | Previous Version | Text Only | Print | Product List | Glossary Off
Versions: 1 2 3 4 5 6 7 8 9 10 11 12 13 14 15 16 17 18 19 20 21 22 23 24 25 26 27 28 29 30 31 32 33 34 35 36 37 38 39 40 41 42 43 44 45 46 47 48 49 50

000
ASUS43 KMPX 271610
RWRMN
WEATHER ROUNDUP FOR MINNESOTA
NATIONAL WEATHER SERVICE TWIN CITIES/CHANHASSEN MN
1000 AM CST SAT DEC 27 2014


NOTE: "FAIR" INDICATES FEW OR NO CLOUDS BELOW 12,000 FEET WITH NO
SIGNIFICANT WEATHER AND/OR OBSTRUCTIONS TO VISIBILITY. N/A MEANS
CURRENT SKY AND/OR WEATHER CONDITIONS ARE NOT AVAILABLE.

MNZ060>063-068>070-271700-
   Twin Cities Metro

CITY           SKY/WX    TMP DP  RH WIND       PRES   REMARKS
TWIN CITIES    CLOUDY    23  17  78 NW16      30.07R WCI  10
ST PAUL        PTSUNNY   23  18  81 NW12      30.08R WCI  12
CRYSTAL        CLOUDY    24  18  77 NW13      30.06R WCI  12
BLAINE         CLOUDY    25  21  86 NW13      30.05S WCI  13
LAKEVILLE      FLURRIES  21  18  86 NW10G17   30.06R WCI  10
EDEN PRAIRIE   CLOUDY    23  17  78 NW9       30.06R WCI  13
SOUTH ST PAUL  PTSUNNY   25  19  79 NW8       30.06R WCI  16
LAKE ELMO      CLOUDY    25  19  80 NW13G18   30.05R WCI  13
$$
MNZ001>005-007-008-013>017-022>024-027-028-271700-
   Northwest Minnesota

CITY           SKY/WX    TMP DP  RH WIND       PRES   REMARKS
BEMIDJI        FLURRIES  10   6  85 SW5       30.05S WCI   1
HALLOCK        LGT SNOW   9   5  85 S13       30.06S VSB 3/4 WCI  -7
ROSEAU         FLURRIES   9   3  78 SW8       30.05S WCI  -4
WARROAD        PTSUNNY    7   3  85 S6        30.04F WCI  -3
THIEF RVR FALL CLOUDY     7   5  92 S8        30.07S WCI  -6
CROOKSTON      CLOUDY     9   5  85 S10       30.11S WCI  -6
FOSSTON        FLURRIES   7   3  85 S8        30.07S WCI  -6
DETROIT LAKES  FLURRIES   9   7  92 CALM      30.09F
MOORHEAD       SUNNY      9   7  92 S9        30.13F WCI  -5
PARK RAPIDS    SUNNY     12   7  80 W7        30.06S WCI   1
MAHNOMEN       FLURRIES   7   4  88 S6        30.07F WCI  -3
$$
MNZ006-009>011-018-025>026-271700-
   North Central Minnesota

CITY           SKY/WX    TMP DP  RH WIND       PRES   REMARKS
BAUDETTE       CLOUDY     8   5  87 S8        30.04F WCI  -4
FLAG ISLAND    CLOUDY     9   3  78 S7        30.02F WCI  -3
INTL FALLS     CLOUDY    11   5  77 W5        30.04F WCI   3
WASKISH        FLURRIES  10   9  92 CALM      30.06S
BIG FORK       FLURRIES  14   7  73 NW3       30.04F
LONGVILLE      MOSUNNY   14   9  79 W5        30.06S WCI   6
GRAND RAPIDS   CLOUDY    16   9  73 W8        30.03S WCI   5
CRANE LAKE     FLURRIES   9   5  85 SW3       30.06F
ORR            FLURRIES  10   5  79 NW6       30.01S WCI   1
COOK           FLURRIES  12   7  79 W6        30.03F WCI   3
WALKER         FAIR      11   6  81 W5        30.06S WCI   3
$$
MNZ012-019>021-037-271700-
   Northeast Minnesota

CITY           SKY/WX    TMP DP  RH WIND       PRES   REMARKS
DULUTH         PTSUNNY   17  10  74 NW14      29.99R WCI   3
ELY            FLURRIES  12   9  85 NW6       30.00F WCI   3
HIBBING        LGT SNOW  16   8  71 NW9       30.02F WCI   4
EVELETH        FLURRIES  16  10  79 NW7       30.02F WCI   6
DULUTH HARBOR  CLOUDY    23  16  74 NW14      30.05R WCI  11
TWO HARBORS    CLOUDY    21  14  73 NW9       29.97F WCI  11
GRAND MARAIS     N/A     23  15  71 NW10G23   29.98F WCI  12
G MARAIS ARPRT CLOUDY    16  10  79 NW5       29.93F WCI   9
$$
MNZ029>031-032-039>041-046>048-054>057-064-271700-
   West Central Minnesota

CITY           SKY/WX    TMP DP  RH WIND       PRES   REMARKS
FERGUS FALLS   SUNNY      7   1  78 CALM      30.16S
WHEATON        SUNNY      9   5  85 W3        30.17S
MORRIS         SUNNY     10   5  79 NW8       30.14R WCI  -1
ALEXANDRIA     SUNNY     11   4  73 NW7       30.10S WCI   0
ELBOW LAKE     FAIR       8   4  83 NW5       30.13S WCI   0
WADENA         FLURRIES  10   7  85 W6        30.09R WCI   1
GLENWOOD       SUNNY     10   3  72 W8        30.11S WCI  -1
APPLETON       SUNNY     12   7  79 NW8       30.17R WCI   1
BENSON         SUNNY     12   5  73 N8        30.14S WCI   1
ORTONVILLE     SUNNY     10   3  72 CALM      30.16R
MADISON        SUNNY     12   7  79 NW7       30.18R WCI   2
WILLMAR        FAIR      12   7  79 NW15      30.13S WCI  -4
$$
MNZ033>034-036-042>043-049>051-058-059-271700-
   Central Minnesota

CITY           SKY/WX    TMP DP  RH WIND       PRES   REMARKS
ST CLOUD       MOSUNNY   24  14  65 NW9       30.08R WCI  14
SAUK CENTRE    FAIR      13   9  83 W10       30.10S WCI   0
PAYNESVILLE    SUNNY     13  10  87 W10G16    30.11R WCI   0
AITKIN         PTSUNNY   21  12  68 NW5       30.05R WCI  15
PINE RIVER     PTSUNNY   14  10  85 W5        30.10S WCI   6
BRAINERD       MOSUNNY   17  10  74 NW8       30.07R WCI   7
STAPLES        CLOUDY    12   9  85 W8        30.09R WCI   1
LONG PRAIRIE   FAIR      14  10  85 W8        30.10R WCI   3
LITTLE FALLS   MOSUNNY   21  12  68 W10       30.09R WCI  10
LITCHFIELD     PTSUNNY   19  16  86 W7        30.10R WCI  10
BUFFALO        CLOUDY    23  17  77 NW8       30.09R WCI  14
MAPLE LAKE     CLOUDY    24  18  80 NW9       30.08S WCI  14
$$
MNZ037-044-045-052-053-271700-
   East Central Minnesota

CITY           SKY/WX    TMP DP  RH WIND       PRES   REMARKS
PRINCETON      CLOUDY    23  16  74 NW9       30.06R WCI  13
MORA           CLOUDY    21  16  79 NW14      30.07R WCI   8
CAMBRIDGE      CLOUDY    25  16  68 N7        30.05R WCI  17
RUSH CITY      CLOUDY    22  16  79 N9        30.06R WCI  11
MOOSE LAKE     CLOUDY    21  12  68 NW7       30.03R WCI  13
HINCKLEY       CLOUDY    21  16  79 NW8       30.05R WCI  12
CLOQUET        PTSUNNY   18  10  73 NW14G21   30.01S WCI   4
MCGREGOR       CLOUDY    21  14  73 NW8       30.05R WCI  12
$$
MNZ071>073-080-081-089-090-097-098-271700-
   Southwest Minnesota

CITY           SKY/WX    TMP DP  RH WIND       PRES   REMARKS
MONTEVIDEO     SUNNY     12  10  92 N8        30.17R WCI   1
GRANITE FALLS  SUNNY     11   6  81 W10       30.18R WCI  -3
CANBY          SUNNY     10   6  82 NW5       30.18R WCI   2
MARSHALL       SUNNY     10   3  72 NW7       30.16R WCI   0
REDWOOD FALLS  SUNNY     14   7  73 NW12      30.15R WCI   0
OLIVIA         SUNNY     14  10  85 NW12      30.14R WCI   0
PIPESTONE        N/A     12   9  85 NW12      30.13R WCI  -2
WINDOM         SUNNY     12   7  79 W15       30.13R WCI  -4
WORTHINGTON    SUNNY     16 -27  13 W9        30.15R WCI   4
JACKSON        SUNNY     16   9  73 NW12      30.14R WCI   3
TRACY          SUNNY     13   8  83 NW8       30.15R WCI   1
SLAYTON        SUNNY     11   8  86 W8        30.13S WCI  -1
$$
MNZ065>067-074>077-082>085-091>093-271700-
   South Central Minnesota

CITY           SKY/WX    TMP DP  RH WIND       PRES   REMARKS
MANKATO        CLOUDY    19  14  79 NW14      30.10R WCI   6
NEW ULM        CLOUDY    18  12  79 NW15      30.13R WCI   3
ST JAMES       CLOUDY    18  12  79 W16       30.15R WCI   3
FAIRMONT       CLOUDY    18  12  79 NW15      30.13R WCI   3
GLENCOE        CLOUDY    22  19  88 NW16      30.09R WCI   9
FARIBAULT      MOSUNNY   23  18  80 W8        30.08R WCI  14
OWATONNA       SUNNY     21  18  86 NW13      30.07R WCI   9
WASECA         SUNNY     21  18  86 NW13      30.10R WCI   9
ALBERT LEA     CLOUDY    21  19  93 NW12G18   30.08R WCI   9
$$
MNZ078>079-086>088-094>096-271700-
   Southeast Minnesota

CITY           SKY/WX    TMP DP  RH WIND       PRES   REMARKS
ROCHESTER      CLOUDY    23  20  88 NW18      30.02R WCI   9
RED WING       FLURRIES  25  19  80 NW9       30.03R WCI  15
STANTON        SUNNY     24  19  83 NW7G17    30.05R WCI  16
DODGE CENTER   PTSUNNY   21  19  93 NW13      30.04R WCI   9
WINONA         CLOUDY    30  27  86 NW13      29.99S WCI  20
AUSTIN         CLOUDY    23  19  86 NW12G20   30.06R WCI  12
PRESTON        CLOUDY    24  21  89 NW15G21   30.01R WCI  11
$$
ABBREVIATIONS USED IN REMARKS
   TC - TEMPERATURES IN CELSIUS
  WCI - WIND CHILL INDEX
   HX - HEAT INDEX
  VSB - VISIBILITY
$$


USA.gov is the U.S. government's official web portal to all federal, state and local government web resources and services.